AZG13T YPDN-YPLM

Flight info

Callsign AZG13T
Flight time N/A
Altitude 33000
Route HELLI J151 PD J93 LM
Aircraft B77L/H-SDE1E2E3FGHIJ2J3J4J5M1RWXY/LB1D1

Departure

Time N/A
Airport Darwin International Airport / RAAF Darwin (YPDN)

Arrival

Time 2026-05-03 21:43
Airport Learmonth Airport (YPLM)
Time Latitude Longitude Altitude Speed Heading
2026-05-03 20:15 -18.13826 122.85787 34986 ft 431 kts 242°
2026-05-03 20:15 -18.16814 122.80334 34984 ft 430 kts 242°
2026-05-03 20:16 -18.19794 122.74890 34984 ft 429 kts 242°
2026-05-03 20:16 -18.22770 122.69450 35000 ft 429 kts 242°
2026-05-03 20:17 -18.25746 122.64005 34997 ft 429 kts 242°
2026-05-03 20:17 -18.28724 122.58553 35004 ft 430 kts 242°
2026-05-03 20:18 -18.31681 122.53134 35001 ft 430 kts 242°
2026-05-03 20:18 -18.34657 122.47673 34984 ft 430 kts 242°
2026-05-03 20:19 -18.37636 122.42203 34986 ft 430 kts 242°
2026-05-03 20:19 -18.40610 122.36738 35002 ft 430 kts 242°
2026-05-03 20:20 -18.43584 122.31269 35003 ft 430 kts 242°
2026-05-03 20:20 -18.46559 122.25792 34999 ft 430 kts 242°
2026-05-03 20:21 -18.49525 122.20328 34985 ft 430 kts 242°
2026-05-03 20:21 -18.52493 122.14854 35005 ft 430 kts 242°
2026-05-03 20:22 -18.55438 122.09418 35000 ft 430 kts 242°
2026-05-03 20:22 -18.58402 122.03943 35004 ft 430 kts 242°
2026-05-03 20:23 -18.61367 121.98462 34985 ft 430 kts 242°
2026-05-03 20:23 -18.64328 121.92983 35009 ft 430 kts 242°
2026-05-03 20:24 -18.67286 121.87505 35004 ft 429 kts 242°
2026-05-03 20:24 -18.70237 121.82034 34999 ft 429 kts 242°
2026-05-03 20:25 -18.73185 121.76564 35003 ft 428 kts 242°
2026-05-03 20:25 -18.76123 121.71110 35003 ft 427 kts 242°
2026-05-03 20:26 -18.79051 121.65667 34986 ft 427 kts 242°
2026-05-03 20:26 -18.81962 121.60253 35000 ft 426 kts 242°
2026-05-03 20:27 -18.84883 121.54812 34993 ft 426 kts 242°
2026-05-03 20:27 -18.87801 121.49374 35003 ft 426 kts 242°
2026-05-03 20:28 -18.90718 121.43934 34999 ft 426 kts 242°
2026-05-03 20:28 -18.93635 121.38486 35001 ft 425 kts 242°
2026-05-03 20:29 -18.96547 121.33044 35014 ft 425 kts 242°
2026-05-03 20:29 -18.99454 121.27608 35007 ft 425 kts 242°
2026-05-03 20:30 -19.02364 121.22159 35011 ft 425 kts 242°
2026-05-03 20:30 -19.05273 121.16709 35010 ft 425 kts 242°
2026-05-03 20:31 -19.08174 121.11268 35007 ft 425 kts 242°
2026-05-03 20:31 -19.11081 121.05812 35009 ft 425 kts 242°
2026-05-03 20:32 -19.13980 121.00367 35007 ft 425 kts 242°
2026-05-03 20:32 -19.16879 120.94915 35017 ft 425 kts 242°
2026-05-03 20:33 -19.19755 120.89501 35022 ft 425 kts 242°
2026-05-03 20:33 -19.22651 120.84045 35020 ft 425 kts 242°
2026-05-03 20:34 -19.25538 120.78600 35020 ft 425 kts 242°
2026-05-03 20:34 -19.28430 120.73143 35020 ft 424 kts 242°
2026-05-03 20:35 -19.31314 120.67691 35021 ft 424 kts 242°
2026-05-03 20:35 -19.34193 120.62247 35022 ft 424 kts 242°
2026-05-03 20:36 -19.37071 120.56802 35025 ft 423 kts 242°
2026-05-03 20:36 -19.39940 120.51355 35030 ft 423 kts 242°
2026-05-03 20:37 -19.42805 120.45905 35026 ft 423 kts 242°
2026-05-03 20:37 -19.45646 120.40497 35028 ft 423 kts 242°
2026-05-03 20:38 -19.48503 120.35055 35027 ft 422 kts 242°
2026-05-03 20:38 -19.51356 120.29615 35026 ft 422 kts 242°
2026-05-03 20:39 -19.54205 120.24178 35037 ft 422 kts 242°
2026-05-03 20:39 -19.57053 120.18738 35038 ft 421 kts 242°
2026-05-03 20:40 -19.59893 120.13305 35035 ft 421 kts 242°
2026-05-03 20:40 -19.62732 120.07873 35035 ft 421 kts 242°
2026-05-03 20:41 -19.65550 120.02475 35036 ft 421 kts 242°
2026-05-03 20:41 -19.68383 119.97040 35039 ft 421 kts 242°
2026-05-03 20:42 -19.71212 119.91612 35036 ft 421 kts 242°
2026-05-03 20:42 -19.74040 119.86178 35037 ft 420 kts 242°
2026-05-03 20:43 -19.76869 119.80738 35044 ft 420 kts 242°
2026-05-03 20:43 -19.79692 119.75305 35046 ft 420 kts 242°
2026-05-03 20:44 -19.82514 119.69869 35048 ft 420 kts 242°
2026-05-03 20:44 -19.85335 119.64429 35046 ft 420 kts 242°
2026-05-03 20:45 -19.88154 119.58987 35047 ft 420 kts 242°
2026-05-03 20:45 -19.90954 119.53579 35047 ft 420 kts 242°
2026-05-03 20:46 -19.93767 119.48139 35045 ft 420 kts 242°
2026-05-03 20:46 -19.96587 119.42680 35047 ft 420 kts 242°
2026-05-03 20:47 -19.99398 119.37234 35046 ft 420 kts 242°
2026-05-03 20:47 -20.02212 119.31777 35046 ft 420 kts 242°
2026-05-03 20:48 -20.05015 119.26337 35046 ft 420 kts 242°
2026-05-03 20:48 -20.07816 119.20895 35048 ft 419 kts 242°
2026-05-03 20:49 -20.10613 119.15456 35047 ft 419 kts 242°
2026-05-03 20:49 -20.13388 119.10051 35047 ft 418 kts 242°
2026-05-03 20:50 -20.16174 119.04622 35044 ft 418 kts 242°
2026-05-03 20:50 -20.18956 118.99196 35046 ft 417 kts 242°
2026-05-03 20:51 -20.21737 118.93767 35045 ft 417 kts 242°
2026-05-03 20:51 -20.24512 118.88345 35047 ft 417 kts 242°
2026-05-03 20:52 -20.27287 118.82917 35047 ft 417 kts 242°
2026-05-03 20:52 -20.30040 118.77526 35046 ft 417 kts 242°
2026-05-03 20:53 -20.32810 118.72097 35047 ft 417 kts 241°
2026-05-03 20:53 -20.35570 118.66661 35044 ft 417 kts 243°
2026-05-03 20:54 -20.37732 118.60927 35051 ft 418 kts 249°
2026-05-03 20:54 -20.39805 118.51881 35050 ft 420 kts 255°
2026-05-03 20:55 -20.40922 118.45762 35046 ft 421 kts 256°
2026-05-03 20:55 -20.42047 118.39641 35047 ft 420 kts 255°
2026-05-03 20:56 -20.43179 118.33538 35045 ft 420 kts 255°
2026-05-03 20:56 -20.44314 118.27431 35047 ft 420 kts 255°
2026-05-03 20:57 -20.45444 118.21363 35043 ft 420 kts 255°
2026-05-03 20:57 -20.46578 118.15248 35047 ft 420 kts 255°
2026-05-03 20:58 -20.47709 118.09122 35046 ft 421 kts 255°
2026-05-03 20:58 -20.48838 118.02992 35045 ft 421 kts 255°
2026-05-03 20:59 -20.49967 117.96861 35049 ft 421 kts 255°
2026-05-03 20:59 -20.51088 117.90770 35048 ft 421 kts 255°
2026-05-03 21:00 -20.51842 117.86662 35043 ft 421 kts 255°
2026-05-03 21:00 -20.53330 117.78512 35050 ft 420 kts 255°
2026-05-03 21:01 -20.54448 117.72396 35056 ft 420 kts 255°
2026-05-03 21:01 -20.55562 117.66284 35058 ft 419 kts 255°
2026-05-03 21:02 -20.56675 117.60167 35055 ft 419 kts 255°
2026-05-03 21:02 -20.57597 117.55087 35056 ft 419 kts 255°
2026-05-03 21:03 -20.58704 117.48980 35054 ft 419 kts 255°
2026-05-03 21:03 -20.59988 117.41876 35057 ft 419 kts 255°
2026-05-03 21:04 -20.60903 117.36806 35055 ft 419 kts 255°
2026-05-03 21:04 -20.62004 117.30691 35058 ft 419 kts 255°
2026-05-03 21:05 -20.63100 117.24588 35055 ft 419 kts 255°
2026-05-03 21:05 -20.64196 117.18475 35056 ft 419 kts 255°
2026-05-03 21:06 -20.65292 117.12352 35057 ft 419 kts 255°
2026-05-03 21:06 -20.66384 117.06233 35054 ft 420 kts 255°
2026-05-03 21:07 -20.67475 117.00111 35059 ft 420 kts 255°
2026-05-03 21:07 -20.68557 116.94022 35058 ft 420 kts 255°
2026-05-03 21:08 -20.69644 116.87892 35056 ft 420 kts 255°
2026-05-03 21:08 -20.70816 116.81790 35054 ft 418 kts 251°
2026-05-03 21:09 -20.72819 116.75995 35061 ft 415 kts 245°
2026-05-03 21:09 -20.75422 116.70506 35062 ft 414 kts 238°
2026-05-03 21:10 -20.78469 116.65281 35063 ft 414 kts 238°
2026-05-03 21:10 -20.81532 116.60063 35071 ft 414 kts 238°
2026-05-03 21:11 -20.84577 116.54832 35068 ft 414 kts 238°
2026-05-03 21:11 -20.87608 116.49597 35062 ft 414 kts 238°
2026-05-03 21:12 -20.90640 116.44348 35060 ft 414 kts 238°
2026-05-03 21:12 -20.93644 116.39141 35062 ft 414 kts 238°
2026-05-03 21:13 -20.96663 116.33904 35064 ft 414 kts 238°
2026-05-03 21:13 -20.99686 116.28658 35068 ft 413 kts 238°
2026-05-03 21:14 -21.02696 116.23427 35065 ft 413 kts 238°
2026-05-03 21:14 -21.05707 116.18190 35063 ft 413 kts 238°
2026-05-03 21:15 -21.08719 116.12948 35063 ft 412 kts 238°
2026-05-03 21:15 -21.11719 116.07721 35064 ft 412 kts 238°
2026-05-03 21:16 -21.14709 116.02505 35070 ft 411 kts 238°
2026-05-03 21:16 -21.17702 115.97280 35061 ft 411 kts 238°
2026-05-03 21:17 -21.20183 115.92943 35065 ft 411 kts 238°
2026-05-03 21:17 -21.23654 115.86874 35078 ft 411 kts 238°
2026-05-03 21:18 -21.25152 115.84254 34330 ft 413 kts 238°
2026-05-03 21:18 -21.26642 115.81646 33600 ft 409 kts 238°
2026-05-03 21:18 -21.28129 115.79041 32715 ft 409 kts 238°
2026-05-03 21:18 -21.29614 115.76436 31834 ft 410 kts 238°
2026-05-03 21:19 -21.31104 115.73824 31076 ft 408 kts 238°
2026-05-03 21:19 -21.32574 115.71242 30410 ft 405 kts 239°
2026-05-03 21:19 -21.34037 115.68673 29767 ft 402 kts 239°
2026-05-03 21:19 -21.35489 115.66122 29120 ft 399 kts 239°
2026-05-03 21:20 -21.36938 115.63595 28491 ft 395 kts 237°
2026-05-03 21:20 -21.38429 115.61162 27883 ft 388 kts 238°
2026-05-03 21:20 -21.39822 115.58694 27337 ft 384 kts 241°
2026-05-03 21:20 -21.41012 115.56180 26791 ft 377 kts 242°
2026-05-03 21:21 -21.42338 115.53722 26227 ft 383 kts 238°
2026-05-03 21:21 -21.43785 115.51255 25665 ft 399 kts 238°
2026-05-03 21:21 -21.45302 115.48698 25071 ft 410 kts 238°
2026-05-03 21:21 -21.46823 115.46106 24469 ft 410 kts 238°
2026-05-03 21:22 -21.48317 115.43516 23872 ft 406 kts 239°
2026-05-03 21:22 -21.49781 115.40936 23294 ft 402 kts 239°
2026-05-03 21:22 -21.51237 115.38385 22734 ft 399 kts 239°
2026-05-03 21:22 -21.52662 115.35878 22188 ft 396 kts 239°
2026-05-03 21:23 -21.54107 115.33331 21657 ft 393 kts 239°
2026-05-03 21:23 -21.55524 115.30828 21128 ft 391 kts 239°
2026-05-03 21:23 -21.56912 115.28372 20618 ft 388 kts 239°
2026-05-03 21:23 -21.58309 115.25898 20100 ft 386 kts 238°
2026-05-03 21:24 -21.59698 115.23437 19594 ft 384 kts 238°
2026-05-03 21:24 -21.61079 115.20991 19091 ft 382 kts 238°
2026-05-03 21:24 -21.62453 115.18555 18588 ft 380 kts 238°
2026-05-03 21:24 -21.63821 115.16131 18088 ft 378 kts 238°
2026-05-03 21:25 -21.65186 115.13712 17584 ft 377 kts 238°
2026-05-03 21:25 -21.66517 115.11287 17083 ft 375 kts 241°
2026-05-03 21:25 -21.67613 115.08750 16582 ft 374 kts 247°
2026-05-03 21:25 -21.68606 115.06176 16086 ft 372 kts 247°
2026-05-03 21:26 -21.69599 115.03617 15594 ft 370 kts 247°
2026-05-03 21:26 -21.70591 115.01073 15102 ft 368 kts 247°
2026-05-03 21:26 -21.71580 114.98544 14615 ft 366 kts 247°
2026-05-03 21:26 -21.72563 114.96031 14128 ft 363 kts 247°
2026-05-03 21:27 -21.73528 114.93568 13664 ft 361 kts 247°
2026-05-03 21:27 -21.74498 114.91091 13192 ft 358 kts 248°
2026-05-03 21:27 -21.75459 114.88631 12723 ft 355 kts 248°
2026-05-03 21:27 -21.76416 114.86190 12267 ft 352 kts 248°
2026-05-03 21:28 -21.77367 114.83767 11813 ft 351 kts 248°
2026-05-03 21:28 -21.78314 114.81345 11355 ft 353 kts 248°
2026-05-03 21:28 -21.79270 114.78899 11138 ft 353 kts 248°
2026-05-03 21:28 -21.80211 114.76485 10934 ft 347 kts 248°
2026-05-03 21:29 -21.81129 114.74129 10782 ft 336 kts 248°
2026-05-03 21:29 -21.82020 114.71852 10615 ft 325 kts 248°
2026-05-03 21:29 -21.82880 114.69651 10443 ft 311 kts 248°
2026-05-03 21:29 -21.83692 114.67572 10275 ft 290 kts 248°
2026-05-03 21:30 -21.84443 114.65644 10140 ft 269 kts 248°
2026-05-03 21:30 -21.85162 114.63799 10077 ft 267 kts 248°
2026-05-03 21:30 -21.85880 114.61955 9816 ft 269 kts 248°
2026-05-03 21:30 -21.86590 114.60101 9506 ft 264 kts 249°
2026-05-03 21:31 -21.87276 114.58302 9394 ft 264 kts 248°
2026-05-03 21:31 -21.88004 114.56436 9117 ft 273 kts 248°
2026-05-03 21:31 -21.88747 114.54533 8721 ft 276 kts 248°
2026-05-03 21:31 -21.89485 114.52641 8392 ft 271 kts 248°
2026-05-03 21:32 -21.90207 114.50790 8078 ft 265 kts 248°
2026-05-03 21:32 -21.90917 114.48969 7763 ft 263 kts 248°
2026-05-03 21:32 -21.91621 114.47161 7535 ft 259 kts 248°
2026-05-03 21:32 -21.92301 114.45411 7421 ft 254 kts 248°
2026-05-03 21:33 -21.92990 114.43640 7308 ft 259 kts 248°
2026-05-03 21:33 -21.93686 114.41845 7054 ft 259 kts 248°
2026-05-03 21:33 -21.94372 114.40077 6785 ft 253 kts 248°
2026-05-03 21:33 -21.95045 114.38347 6463 ft 246 kts 248°
2026-05-03 21:34 -21.95697 114.36667 6136 ft 240 kts 248°
2026-05-03 21:34 -21.96343 114.34997 5821 ft 243 kts 248°
2026-05-03 21:34 -21.96995 114.33307 5509 ft 245 kts 248°
2026-05-03 21:34 -21.97651 114.31612 5192 ft 245 kts 248°
2026-05-03 21:35 -21.98296 114.29940 4854 ft 238 kts 248°
2026-05-03 21:35 -21.98921 114.28323 4507 ft 231 kts 248°
2026-05-03 21:35 -21.99529 114.26752 4221 ft 225 kts 248°
2026-05-03 21:35 -22.00133 114.25192 3979 ft 226 kts 248°
2026-05-03 21:36 -22.00729 114.23650 3778 ft 224 kts 247°
2026-05-03 21:36 -22.01328 114.22099 3563 ft 220 kts 247°
2026-05-03 21:36 -22.01915 114.20572 3295 ft 222 kts 247°
2026-05-03 21:36 -22.02497 114.19059 3034 ft 221 kts 248°
2026-05-03 21:37 -22.02974 114.17498 2743 ft 214 kts 253°
2026-05-03 21:37 -22.03362 114.16021 2477 ft 196 kts 254°
2026-05-03 21:37 -22.03719 114.14666 2406 ft 184 kts 253°
2026-05-03 21:37 -22.04077 114.13324 2366 ft 188 kts 253°
2026-05-03 21:38 -22.04438 114.11975 2318 ft 187 kts 254°
2026-05-03 21:38 -22.04962 114.10731 2270 ft 182 kts 222°
2026-05-03 21:38 -22.06067 114.10255 2297 ft 170 kts 180°
2026-05-03 21:38 -22.07242 114.10211 2332 ft 169 kts 182°
2026-05-03 21:39 -22.08401 114.10135 2222 ft 166 kts 182°
2026-05-03 21:39 -22.09539 114.10040 1896 ft 162 kts 183°
2026-05-03 21:39 -22.10626 114.09960 1710 ft 152 kts 184°
2026-05-03 21:39 -22.11682 114.09873 1667 ft 154 kts 183°
2026-05-03 21:40 -22.12741 114.09801 1668 ft 155 kts 183°
2026-05-03 21:40 -22.13819 114.09726 1650 ft 156 kts 183°
2026-05-03 21:40 -22.14921 114.09663 1522 ft 161 kts 183°
2026-05-03 21:40 -22.16031 114.09585 1225 ft 158 kts 184°
2026-05-03 21:41 -22.17101 114.09504 934 ft 151 kts 185°
2026-05-03 21:41 -22.18147 114.09425 677 ft 151 kts 185°
2026-05-03 21:41 -22.19206 114.09339 503 ft 153 kts 186°
2026-05-03 21:41 -22.20269 114.09260 322 ft 154 kts 185°
2026-05-03 21:42 -22.21333 114.09170 154 ft 153 kts 186°
2026-05-03 21:42 -22.22398 114.09085 30 ft 150 kts 185°
2026-05-03 21:42 -22.23303 114.09020 28 ft 105 kts 184°
2026-05-03 21:42 -22.23848 114.08979 28 ft 57 kts 184°
2026-05-03 21:43 -22.24210 114.08954 27 ft 50 kts 183°
2026-05-03 21:43 -22.24449 114.08939 27 ft 30 kts 183°
2026-05-03 21:43 -22.24629 114.08928 27 ft 15 kts 184°
2026-05-03 21:43 -22.24714 114.08908 27 ft 11 kts 222°
2026-05-03 21:44 -22.24727 114.08833 29 ft 10 kts 270°
2026-05-03 21:44 -22.24724 114.08758 29 ft 10 kts 274°
2026-05-03 21:44 -22.24719 114.08682 28 ft 10 kts 274°
2026-05-03 21:44 -22.24715 114.08608 28 ft 10 kts 274°
2026-05-03 21:45 -22.24710 114.08535 28 ft 10 kts 276°
2026-05-03 21:45 -22.24668 114.08491 28 ft 8 kts 348°
2026-05-03 21:45 -22.24632 114.08491 28 ft 0 kts